Dewpoint
-6 -7 -7 -6 -5 -5 -5 -4 -3 -3 -2 0 5 7 8 9 8 8 9 9 9 8 9 8 8 8 10 8 9 8 10 11 11 11 11 11 11 10 8 7 7 9 8
-5 -6 -7 -5 -5 -4 -5 -5 -6 -5 -4 -2 1 4 5 6 7 8 8 7 8 8 7 7 7 7 7 7 8 9 8 10 9 10 10 10 9 9 8 10 10 8 9
-5 -4 -5 -6 -4 -4 -4 -5 -6 -6 -6 -4 -2 1 2 4 5 4 4 5 6 5 5 5 4 4 6 7 6 5 6 6 6 8 8 9 9 9 9 10 9 9 9
-11 -11 -11 -12 -9 -5 -4 -4 -3 -6 -5 -4 -3 -2 -0 0 1 2 3 3 2 2 2 3 3 3 2 4 3 4 4 4 4 4 4 5 6 6 7 8 9 8 9
-21 -20 -19 -19 -19 -20 -20 -18 -15 -15 -13 -14 -11 -12 -11 -11 -8 -5 -2 -1 -1 -2 -2 -2 -3 -3 -3 -2 -2 -2 -2 -1 -1 -0 1 2 3 3 4 4 5 7 8
-28 -27 -25 -25 -27 -30 -29 -28 -28 -28 -28 -29 -27 -25 -26 -26 -26 -27 -28 -26 -25 -22 -22 -20 -19 -16 -14 -11 -10 -9 -8 -7 -6 -4 -4 -3 -2 -1 0 2 2 3 4
-30 -31 -31 -31 -31 -32 -32 -32 -32 -33 -33 -32 -32 -31 -29 -27 -27 -27 -29 -29 -29 -30 -30 -30 -30 -30 -29 -24 -20 -17 -14 -11 -10 -8 -6 -6 -5 -4 -3 -2 -2 -1 -0
-25 -28 -28 -29 -31 -32 -33 -33 -34 -34 -34 -33 -31 -29 -31 -32 -34 -34 -33 -34 -33 -31 -31 -31 -30 -29 -31 -33 -28 -25 -22 -17 -14 -11 -8 -7 -7 -6 -6 -5 -4 -3 -2
-21 -23 -26 -27 -29 -31 -32 -33 -34 -35 -35 -35 -35 -35 -34 -26 -33 -36 -36 -36 -35 -34 -33 -33 -32 -31 -30 -31 -29 -29 -28 -24 -21 -14 -11 -10 -9 -8 -8 -7 -6 -5 -5
-20 -21 -23 -25 -27 -28 -29 -32 -33 -34 -34 -35 -35 -35 -36 -33 -29 -36 -37 -37 -36 -36 -34 -33 -31 -28 -27 -26 -26 -25 -23 -19 -18 -19 -18 -16 -14 -12 -11 -9 -8 -8 -7
-20 -21 -23 -25 -25 -25 -25 -28 -30 -32 -35 -36 -35 -34 -32 -35 -35 -37 -37 -38 -36 -36 -37 -36 -35 -32 -30 -28 -24 -22 -19 -16 -17 -17 -17 -16 -16 -15 -14 -12 -11 -9 -9
-20 -22 -22 -23 -23 -24 -25 -26 -27 -29 -32 -32 -33 -33 -31 -30 -33 -35 -36 -36 -35 -36 -34 -33 -32 -31 -29 -27 -25 -22 -19 -19 -18 -17 -16 -16 -15 -15 -14 -14 -13 -12 -10
-22 -22 -22 -21 -22 -24 -25 -26 -28 -29 -30 -30 -29 -28 -26 -30 -33 -33 -35 -35 -35 -35 -34 -33 -33 -33 -32 -31 -28 -25 -24 -23 -20 -19 -17 -16 -15 -15 -15 -15 -15 -14 -13
-21 -22 -21 -23 -24 -24 -24 -25 -25 -24 -23 -22 -24 -22 -18 -16 -15 -18 -28 -33 -34 -35 -35 -35 -35 -34 -34 -33 -33 -30 -27 -26 -22 -19 -17 -16 -16 -16 -16 -15 -15 -15 -15
-23 -24 -24 -24 -23 -22 -21 -20 -18 -14 -14 -15 -17 -19 -20 -17 -15 -16 -17 -18 -25 -29 -31 -33 -34 -35 -35 -35 -34 -33 -31 -29 -29 -27 -20 -17 -16 -16 -16 -16 -16 -15 -14
-26 -24 -24 -22 -22 -21 -20 -20 -19 -16 -14 -15 -16 -17 -18 -16 -16 -16 -18 -24 -26 -28 -30 -31 -31 -31 -31 -31 -32 -32 -31 -30 -29 -29 -26 -17 -16 -16 -16 -17 -16 -15 -14
-28 -27 -24 -23 -23 -22 -24 -26 -26 -22 -23 -23 -21 -21 -17 -16 -16 -17 -26 -26 -27 -28 -29 -28 -28 -28 -29 -28 -28 -28 -30 -29 -29 -29 -29 -20 -16 -16 -16 -16 -16 -16 -16
-31 -31 -27 -26 -25 -24 -26 -27 -27 -28 -27 -28 -26 -24 -24 -22 -21 -20 -21 -23 -25 -24 -24 -24 -25 -26 -27 -28 -28 -28 -29 -29 -29 -29 -29 -25 -17 -17 -17 -16 -17 -17 -16
-28 -28 -29 -27 -25 -24 -25 -25 -24 -21 -21 -21 -23 -23 -23 -22 -22 -22 -23 -23 -23 -23 -23 -22 -23 -23 -24 -25 -25 -25 -26 -26 -27 -28 -28 -26 -20 -18 -17 -17 -17 -17 -17
-30 -31 -30 -27 -25 -24 -23 -22 -21 -20 -20 -20 -20 -21 -21 -22 -22 -22 -22 -22 -22 -22 -22 -22 -23 -23 -23 -23 -24 -25 -26 -26 -26 -26 -28 -27 -21 -19 -19 -18 -17 -17 -17
-31 -30 -28 -25 -23 -21 -19 -19 -19 -19 -19 -20 -20 -20 -19 -20 -20 -20 -21 -21 -22 -22 -22 -23 -23 -23 -23 -23 -23 -23 -24 -24 -24 -25 -27 -27 -25 -21 -20 -20 -19 -18 -18
-30 -29 -26 -23 -22 -18 -18 -18 -18 -19 -19 -20 -20 -20 -20 -19 -20 -19 -19 -20 -21 -22 -22 -22 -22 -22 -22 -23 -24 -23 -23 -24 -24 -25 -27 -27 -27 -24 -21 -21 -21 -19 -18
-27 -25 -25 -23 -20 -17 -18 -18 -19 -19 -19 -20 -19 -20 -20 -20 -20 -20 -19 -19 -20 -20 -21 -21 -22 -23 -22 -24 -24 -23 -23 -24 -23 -24 -28 -28 -26 -25 -24 -23 -22 -19 -18
-20 -21 -22 -22 -18 -17 -18 -18 -18 -18 -18 -18 -18 -19 -19 -19 -20 -21 -21 -19 -20 -19 -20 -21 -21 -22 -22 -24 -25 -24 -24 -24 -23 -24 -28 -28 -25 -24 -24 -23 -21 -20 -19
-18 -19 -19 -19 -18 -17 -17 -18 -18 -17 -17 -17 -18 -18 -19 -19 -20 -21 -22 -22 -21 -19 -20 -20 -20 -22 -22 -23 -24 -24 -24 -24 -24 -24 -25 -28 -27 -26 -25 -23 -21 -20 -20
-16 -17 -17 -18 -18 -18 -18 -18 -17 -17 -17 -18 -18 -19 -20 -20 -21 -21 -21 -21 -21 -21 -20 -20 -21 -21 -21 -22 -23 -23 -23 -23 -24 -24 -24 -26 -28 -28 -25 -23 -21 -21 -20
Wind_Speed
28 30 31 28 23 23 25 20 21 20 23 24 29 28 26 24 18 15 11 16 16 13 10 13 2 3 18 16 17 26 29 23 21 21 21 21 23 27 27 34 30 32 38
29 32 35 36 33 30 28 32 31 32 33 36 37 37 34 31 29 25 13 12 10 7 5 8 5 6 4 5 7 11 11 5 8 11 14 20 25 26 28 25 28 33 40
27 30 34 40 42 42 37 34 39 38 41 43 47 47 46 42 38 36 34 28 24 24 22 18 14 11 8 8 1 3 8 8 6 8 12 13 16 15 19 27 29 29 35
24 27 30 37 36 39 39 39 42 44 46 49 51 50 48 45 42 38 34 31 29 27 24 22 17 17 18 13 11 15 15 11 10 10 8 10 13 16 19 22 28 30 33
28 30 31 32 35 39 40 41 41 44 47 46 46 50 49 48 45 39 35 28 27 26 26 24 23 21 19 17 16 17 15 16 15 15 14 14 15 19 20 22 24 27 25
28 30 30 32 33 37 39 40 42 45 45 46 46 47 48 47 40 36 32 30 28 28 28 25 22 20 20 20 20 20 19 18 18 19 20 19 18 19 21 23 25 27 29
27 28 29 30 33 35 36 38 40 41 39 43 43 43 44 43 39 36 32 30 28 28 26 24 23 22 19 19 18 18 18 19 19 18 19 20 22 23 25 26 26 27 28
26 27 28 30 32 32 34 37 38 38 39 40 40 39 40 39 35 32 29 28 28 27 27 26 25 24 23 21 18 15 17 16 18 18 18 19 21 23 23 25 29 31 30
24 26 26 27 29 30 32 33 34 34 36 37 36 36 37 36 33 30 27 28 28 28 27 27 25 25 27 26 23 22 21 18 15 14 14 15 17 18 21 23 26 32 36
20 23 24 25 26 27 29 31 32 34 35 34 35 35 34 34 32 31 31 30 29 28 27 26 27 28 28 28 28 27 25 23 22 18 14 13 15 18 20 23 25 27 28
16 18 20 22 24 25 26 28 29 30 31 32 33 33 33 32 31 30 29 29 30 27 27 27 27 25 24 24 23 22 22 22 23 22 22 21 20 21 23 22 22 22 25
12 15 17 20 22 23 24 26 27 28 31 32 32 31 31 30 31 30 29 29 28 28 28 27 26 24 22 21 19 19 19 19 21 22 23 25 27 26 25 24 23 21 19
9 12 15 17 20 21 22 24 25 27 29 31 31 31 30 28 28 26 26 27 27 27 26 24 23 21 20 19 19 20 21 22 23 24 25 25 25 25 25 26 23 25 23
8 10 12 14 15 17 18 21 22 25 27 28 28 28 26 28 30 30 28 25 24 23 22 21 20 19 19 18 18 19 21 22 22 22 22 22 23 25 26 27 29 28 29
6 8 9 11 13 15 17 17 19 19 19 22 24 26 26 26 23 22 23 25 27 25 22 20 20 21 22 21 22 23 22 22 22 22 22 23 24 25 26 27 28 29 28
3 5 8 10 12 13 14 14 13 12 12 15 17 19 19 17 17 19 22 26 26 26 26 28 28 28 27 27 27 26 26 26 26 25 23 22 23 24 26 26 27 29 30
3 5 7 8 10 12 14 16 15 14 15 16 17 18 17 16 17 19 23 24 25 25 26 26 27 27 27 27 27 27 28 27 26 25 24 21 22 22 23 25 26 27 29
5 7 7 9 10 11 13 14 14 15 16 17 18 19 19 19 20 19 21 22 24 25 26 26 27 27 27 28 28 29 29 28 27 27 26 23 22 23 24 24 25 27 30
5 6 8 9 10 12 14 14 14 14 16 17 18 18 20 21 22 22 23 25 25 26 27 26 27 26 27 28 28 27 27 27 26 26 25 23 21 23 23 23 26 26 29
6 8 9 9 10 12 13 14 14 15 15 17 19 20 22 23 25 25 26 25 25 25 26 25 28 25 27 29 29 30 29 28 27 26 25 23 21 20 22 23 24 25 27
8 9 10 10 10 11 12 13 13 13 15 16 18 20 22 23 23 24 24 24 23 24 24 25 26 24 26 29 31 29 27 27 26 26 25 22 21 21 21 22 23 23 25
9 9 10 11 11 10 11 12 14 14 15 17 20 22 22 21 22 23 22 22 22 22 23 24 23 21 25 30 30 27 25 26 26 26 25 22 21 21 21 22 22 22 23
7 9 9 11 11 11 12 12 14 15 16 19 22 23 23 24 25 25 23 22 22 21 22 23 22 22 25 29 27 24 24 24 25 26 26 23 21 22 22 22 23 22 21
8 9 9 10 11 12 12 12 15 18 20 22 24 26 26 28 27 26 25 24 23 22 22 22 21 22 25 26 27 24 23 21 23 24 24 22 22 22 22 22 21 19 19
8 8 10 10 11 12 14 15 17 20 23 25 26 28 30 29 29 30 26 23 24 21 22 21 21 21 23 24 25 25 23 22 22 24 24 21 21 21 22 20 19 18 18
5 8 9 11 13 16 19 21 23 22 24 28 31 32 31 31 29 27 26 25 25 25 25 22 20 22 22 22 23 23 23 22 23 25 23 21 20 20 19 18 16 15 16
Wind_Direction
37 36 32 40 38 51 57 64 75 82 85 105 128 147 148 137 136 177 131 144 177 183 136 190 96 251 252 255 266 259 258 225 241 254 265 276 271 273 271 275 265 258 265
43 45 44 51 57 56 62 72 70 75 78 94 102 108 113 113 119 135 158 144 163 140 212 254 227 240 244 250 292 302 354 223 259 274 279 277 280 285 285 279 277 266 263
43 47 51 54 57 60 62 68 71 72 73 84 92 97 98 98 99 96 97 95 99 98 91 90 90 98 116 226 192 51 5 19 348 306 292 278 278 274 273 269 280 273 269
49 51 50 56 60 64 65 65 64 69 70 74 78 83 85 86 86 87 85 81 83 84 80 78 71 57 52 54 28 22 14 4 356 344 323 307 295 280 269 272 266 268 275
52 53 56 58 63 64 63 66 69 71 73 73 70 73 76 76 75 76 76 81 79 77 76 74 67 59 48 41 35 32 25 20 9 358 345 332 315 303 304 298 296 284 267
55 55 56 57 58 61 63 63 64 65 65 70 68 68 70 71 72 75 78 77 74 72 73 73 73 66 56 47 38 26 19 20 14 9 3 351 344 332 321 315 310 310 306
56 55 55 57 59 57 58 60 61 62 62 63 63 65 65 65 64 64 64 64 62 59 56 52 50 49 48 45 39 32 27 24 13 8 3 353 346 343 334 329 325 318 310
58 57 54 54 56 57 56 56 55 54 55 56 59 61 62 62 59 56 54 53 52 49 45 42 38 32 28 26 24 21 21 18 13 7 359 350 346 339 335 331 326 321 315
59 58 56 54 53 53 53 55 55 54 54 53 52 52 52 54 51 50 48 49 48 44 40 35 32 27 23 19 11 8 7 4 6 4 355 345 339 334 331 325 326 329 327
57 57 56 56 55 53 52 50 49 48 48 47 47 48 47 46 43 42 39 41 40 38 36 34 31 27 19 12 10 6 4 2 357 350 343 332 333 339 339 341 337 336 335
56 57 55 54 53 52 51 50 48 47 45 44 43 42 41 42 40 36 33 32 33 27 28 27 25 21 14 9 3 1 1 352 351 351 349 347 348 346 345 343 341 338 329
56 55 53 50 49 45 43 43 43 43 42 41 38 37 36 35 36 32 29 28 26 22 24 22 18 12 8 4 359 357 350 347 350 352 351 353 354 353 349 342 338 334 325
60 56 52 46 41 39 35 33 30 30 32 34 34 32 28 25 30 30 26 24 22 20 19 13 7 4 2 359 357 350 348 350 349 350 354 354 351 347 344 338 335 331 325
61 57 50 41 36 33 31 30 27 26 26 26 27 30 30 32 19 15 21 22 21 16 11 2 357 357 357 357 354 354 357 357 356 353 348 345 342 341 344 345 344 340 334
63 48 38 33 31 30 29 30 34 31 24 20 23 19 23 25 25 16 21 17 14 15 7 359 358 358 357 356 357 356 355 353 350 348 345 342 343 342 341 344 345 343 344
38 31 32 29 27 26 26 27 32 39 23 20 25 20 18 20 16 12 12 10 3 4 359 3 4 3 1 360 359 355 353 352 351 349 344 341 343 344 342 341 341 344 344
11 11 10 12 13 11 10 8 5 5 360 0 4 10 18 17 14 7 359 360 357 354 359 1 3 2 1 360 357 355 352 351 348 346 345 339 337 339 343 344 343 341 339
342 347 345 351 355 353 359 358 351 347 347 351 355 357 358 2 1 1 358 353 357 360 1 0 360 357 356 355 352 349 344 341 341 342 341 338 334 335 336 337 337 340 339
325 329 336 337 339 345 350 351 349 347 352 352 351 353 358 359 357 353 354 354 355 357 358 359 359 358 357 354 351 347 344 340 336 337 336 335 329 329 332 335 335 337 339
303 312 321 322 330 338 343 347 347 350 354 353 355 356 354 352 352 353 353 351 351 352 352 354 354 353 352 352 349 346 341 338 335 334 332 330 330 331 330 330 332 336 338
292 300 307 316 327 331 336 341 344 345 345 349 351 351 348 348 346 345 345 347 347 347 346 348 348 347 347 347 344 341 339 338 334 332 331 326 325 327 329 332 330 329 330
286 298 307 311 321 324 328 334 336 335 337 344 344 341 337 334 335 332 332 334 334 336 338 338 339 340 342 341 338 336 335 333 332 330 329 327 325 324 326 328 328 332 333
287 300 304 305 307 311 319 324 329 330 332 333 335 334 332 329 326 322 317 321 321 322 326 330 331 333 337 339 338 336 331 332 335 333 330 327 327 327 325 326 330 328 332
294 306 314 305 301 304 307 310 316 322 320 318 321 322 321 319 318 319 315 306 308 308 314 319 319 323 332 336 340 337 330 327 331 334 333 328 326 328 329 326 327 327 327
309 329 322 307 298 294 292 299 310 312 306 308 312 314 313 312 312 314 316 313 308 295 302 308 306 313 324 326 331 333 332 330 329 333 332 327 325 326 325 325 325 326 331
317 311 305 300 298 300 303 304 308 306 302 305 308 310 310 311 311 311 309 308 306 302 295 295 299 307 311 314 320 323 326 325 327 328 325 325 326 327 325 327 327 329 338
Height
1452 1443 1436 1424 1415 1407 1401 1395 1390 1390 1385 1381 1374 1373 1374 1375 1374 1382 1393 1394 1401 1398 1408 1411 1405 1416 1423 1429 1433 1431 1421 1426 1434 1436 1439 1442 1443 1446 1445 1445 1446 1448 1449
1457 1448 1439 1429 1419 1412 1406 1399 1398 1393 1388 1384 1378 1375 1376 1379 1380 1389 1394 1398 1399 1394 1403 1404 1411 1420 1424 1424 1432 1427 1405 1419 1428 1433 1433 1437 1437 1437 1438 1437 1438 1437 1435
1462 1454 1445 1433 1425 1418 1413 1410 1404 1398 1396 1387 1380 1379 1381 1383 1385 1393 1397 1396 1401 1403 1407 1411 1421 1422 1419 1418 1429 1427 1421 1420 1425 1426 1429 1431 1430 1428 1428 1429 1431 1429 1429
1467 1459 1452 1441 1438 1430 1427 1420 1413 1407 1405 1394 1385 1385 1385 1390 1391 1393 1398 1404 1411 1412 1414 1414 1418 1420 1418 1417 1422 1416 1416 1417 1420 1424 1427 1425 1424 1424 1422 1420 1418 1417 1414
1472 1466 1461 1455 1448 1443 1438 1433 1425 1423 1411 1404 1407 1396 1395 1393 1397 1402 1405 1417 1420 1422 1420 1419 1423 1424 1422 1421 1419 1418 1421 1417 1420 1423 1425 1424 1420 1420 1418 1414 1410 1408 1406
1477 1472 1469 1463 1457 1450 1446 1441 1436 1431 1428 1422 1418 1414 1410 1407 1413 1416 1422 1424 1428 1430 1425 1427 1426 1427 1424 1424 1422 1423 1419 1418 1422 1422 1423 1426 1422 1421 1416 1410 1406 1402 1398
1482 1478 1475 1470 1465 1459 1454 1449 1444 1439 1437 1431 1429 1427 1424 1423 1427 1429 1431 1432 1432 1429 1431 1430 1425 1426 1426 1425 1425 1425 1425 1422 1423 1424 1426 1427 1422 1417 1414 1406 1405 1402 1398
1487 1483 1480 1476 1471 1467 1463 1456 1451 1447 1442 1441 1439 1437 1433 1433 1437 1438 1438 1435 1433 1435 1434 1431 1427 1426 1427 1425 1427 1429 1426 1425 1425 1425 1426 1426 1420 1415 1410 1406 1403 1396 1394
1491 1488 1485 1482 1477 1472 1468 1465 1461 1458 1453 1449 1447 1444 1440 1441 1443 1443 1443 1440 1439 1437 1433 1430 1430 1427 1426 1425 1424 1424 1423 1425 1425 1427 1424 1423 1421 1417 1411 1406 1398 1389 1383
1495 1493 1490 1487 1484 1479 1475 1470 1467 1463 1460 1457 1454 1450 1449 1447 1449 1447 1443 1440 1441 1440 1437 1435 1433 1428 1427 1428 1421 1422 1423 1424 1424 1425 1423 1422 1420 1412 1404 1399 1396 1391 1387
1499 1497 1494 1491 1487 1484 1482 1478 1474 1470 1467 1464 1461 1459 1456 1454 1452 1451 1449 1446 1442 1441 1436 1433 1432 1430 1431 1429 1429 1428 1428 1427 1422 1418 1415 1413 1407 1402 1399 1400 1398 1391 1392
1502 1499 1496 1493 1491 1488 1485 1482 1479 1476 1472 1469 1467 1465 1462 1461 1457 1454 1452 1448 1445 1442 1439 1437 1436 1435 1435 1433 1433 1431 1428 1425 1418 1414 1412 1406 1400 1398 1396 1397 1395 1392 1390
1504 1502 1499 1496 1494 1490 1488 1484 1481 1478 1475 1473 1470 1467 1465 1463 1459 1458 1455 1451 1448 1445 1444 1443 1441 1439 1438 1436 1432 1429 1424 1419 1417 1412 1404 1401 1402 1399 1397 1395 1389 1386 1385
1505 1503 1501 1499 1498 1495 1492 1489 1485 1483 1480 1477 1474 1472 1470 1465 1460 1457 1456 1456 1453 1451 1449 1447 1444 1443 1439 1436 1433 1428 1422 1418 1413 1408 1407 1404 1400 1397 1393 1389 1384 1379 1374
1506 1505 1503 1501 1499 1496 1495 1492 1489 1487 1484 1481 1478 1474 1470 1468 1468 1466 1462 1459 1454 1453 1452 1450 1446 1441 1435 1432 1428 1423 1418 1415 1413 1408 1404 1402 1397 1394 1393 1386 1381 1377 1368
1507 1506 1504 1502 1499 1497 1495 1493 1491 1490 1489 1485 1483 1480 1478 1475 1472 1466 1461 1458 1455 1451 1448 1444 1437 1435 1434 1430 1423 1419 1416 1412 1409 1405 1401 1398 1395 1392 1388 1383 1377 1373 1367
1506 1505 1505 1503 1500 1498 1495 1492 1491 1490 1488 1486 1483 1480 1477 1475 1470 1466 1463 1460 1455 1453 1451 1448 1440 1438 1435 1429 1424 1421 1413 1410 1407 1403 1399 1396 1393 1391 1385 1380 1375 1372 1367
1504 1503 1503 1502 1500 1498 1495 1493 1492 1490 1488 1485 1482 1479 1476 1473 1470 1467 1464 1462 1458 1455 1451 1447 1439 1435 1429 1423 1418 1415 1411 1408 1405 1400 1395 1391 1388 1387 1384 1381 1377 1372 1366
1504 1503 1501 1500 1499 1497 1494 1492 1490 1488 1486 1483 1481 1478 1474 1471 1468 1465 1462 1458 1454 1450 1446 1442 1438 1433 1428 1423 1420 1416 1412 1407 1403 1399 1396 1393 1390 1386 1382 1378 1372 1368 1363
1502 1501 1500 1499 1497 1495 1494 1492 1489 1487 1485 1482 1478 1475 1472 1468 1465 1462 1458 1455 1451 1447 1443 1439 1435 1431 1427 1424 1420 1415 1411 1407 1402 1399 1395 1392 1388 1385 1380 1376 1372 1368 1364
1499 1499 1498 1497 1495 1493 1492 1490 1489 1486 1484 1481 1478 1474 1471 1467 1465 1461 1458 1454 1450 1447 1442 1438 1435 1431 1428 1424 1419 1415 1410 1406 1402 1398 1394 1390 1386 1382 1379 1375 1371 1367 1363
1497 1496 1495 1495 1492 1491 1490 1488 1487 1485 1482 1478 1475 1472 1469 1466 1463 1460 1457 1453 1450 1446 1442 1438 1434 1430 1426 1422 1417 1412 1408 1404 1400 1396 1391 1388 1384 1380 1377 1373 1369 1365 1361
1495 1494 1493 1492 1490 1489 1487 1486 1485 1483 1479 1475 1472 1469 1467 1464 1460 1457 1453 1450 1446 1443 1439 1435 1431 1428 1425 1420 1415 1410 1406 1402 1398 1393 1389 1385 1382 1378 1375 1371 1367 1363 1359
1493 1492 1491 1490 1488 1487 1485 1484 1482 1479 1475 1472 1469 1466 1463 1459 1456 1452 1448 1445 1441 1438 1435 1431 1428 1425 1421 1418 1413 1409 1405 1400 1396 1391 1386 1382 1378 1375 1372 1368 1365 1362 1358
1491 1490 1488 1487 1486 1484 1482 1480 1478 1474 1471 1468 1465 1461 1457 1454 1450 1446 1442 1438 1435 1432 1429 1427 1424 1421 1418 1414 1410 1406 1402 1398 1394 1389 1385 1380 1376 1373 1369 1365 1362 1359 1356
1488 1487 1486 1484 1482 1480 1478 1475 1473 1469 1466 1462 1458 1454 1450 1446 1443 1439 1436 1432 1429 1426 1423 1421 1418 1415 1413 1410 1406 1403 1399 1395 1391 1386 1382 1378 1374 1370 1366 1363 1361 1358 1354